| time (UTC) | temp C | wind direction | speed KPH | gust KPH | rain 1hr cm | rain 24hr cm | rain mn cm | humidity % | barometer mb |
| 20260505035609 | 16 | 49 | 1.6 | 14.5 | 0.00 | 0.13 | 0.00 | 48 | 1008.9 |
| 20260505034629 | 16 | 55 | 3.2 | 12.9 | 0.00 | 0.13 | 0.00 | 49 | 1008.8 |
| 20260505033824 | 17 | 109 | 6.4 | 16.1 | 0.00 | 0.13 | 0.00 | 48 | 1008.6 |
| 20260505032947 | 17 | 99 | 8.0 | 20.9 | 0.00 | 0.13 | 0.00 | 47 | 1008.7 |
| 20260505032044 | 17 | 125 | 3.2 | 8.0 | 0.00 | 0.13 | 0.00 | 42 | 1008.6 |
| 20260505031204 | 17 | 101 | 1.6 | 8.0 | 0.00 | 0.13 | 0.00 | 40 | 1008.2 |
| 20260505030233 | 17 | 337 | 3.2 | 9.7 | 0.00 | 0.13 | 0.00 | 40 | 1008.1 |
| 20260505025359 | 17 | 343 | 1.6 | 12.9 | 0.00 | 0.13 | 0.00 | 41 | 1008.1 |
| 20260505024444 | 17 | 334 | 8.0 | 16.1 | 0.00 | 0.13 | 0.00 | 41 | 1007.8 |
| 20260505023609 | 17 | 326 | 8.0 | 14.5 | 0.00 | 0.13 | 0.00 | 43 | 1008.0 |
| 20260505022712 | 18 | 302 | 9.7 | 20.9 | 0.00 | 0.13 | 0.00 | 43 | 1008.0 |
| 20260505021719 | 18 | 324 | 9.7 | 17.7 | 0.00 | 0.13 | 0.00 | 42 | 1007.6 |
| 20260505020744 | 18 | 319 | 9.7 | 22.5 | 0.00 | 0.13 | 0.00 | 42 | 1007.5 |
| 20260505015804 | 19 | 307 | 9.7 | 24.1 | 0.00 | 0.13 | 0.00 | 42 | 1007.5 |
| 20260505014929 | 20 | 297 | 11.3 | 32.2 | 0.00 | 0.13 | 0.00 | 37 | 1007.4 |
| 20260505013957 | 20 | 306 | 16.1 | 32.2 | 0.00 | 0.13 | 0.00 | 34 | 1007.2 |
| 20260505013054 | 21 | 242 | 4.8 | 12.9 | 0.00 | 0.13 | 0.00 | 31 | 1006.8 |
| 20260505012252 | 21 | 251 | 4.8 | 12.9 | 0.00 | 0.13 | 0.00 | 32 | 1006.7 |
| 20260505011344 | 21 | 228 | 4.8 | 11.3 | 0.00 | 0.13 | 0.00 | 31 | 1006.6 |
| 20260505010509 | 21 | 140 | 3.2 | 8.0 | 0.00 | 0.13 | 0.00 | 31 | 1006.8 |
| 20260505005554 | 22 | 191 | 3.2 | 14.5 | 0.00 | 0.13 | 0.00 | 30 | 1006.9 |
| 20260505004710 | 22 | 171 | 4.8 | 12.9 | 0.00 | 0.13 | 0.00 | 30 | 1006.9 |
| 20260505003836 | 23 | 167 | 4.8 | 20.9 | 0.00 | 0.13 | 0.00 | 29 | 1006.8 |
| 20260505002949 | 23 | 183 | 1.6 | 9.7 | 0.00 | 0.13 | 0.00 | 29 | 1006.8 |
| 20260505002016 | 22 | 174 | 1.6 | 14.5 | 0.00 | 0.13 | 0.00 | 30 | 1006.9 |
| 20260505001029 | 22 | 184 | 4.8 | 16.1 | 0.00 | 0.13 | 0.00 | 31 | 1007.2 |
| 20260505000230 | 22 | 160 | 4.8 | 12.9 | 0.00 | 0.13 | 0.00 | 32 | 1007.2 |
| 20260504235324 | 21 | 173 | 3.2 | 16.1 | 0.00 | 0.13 | 0.00 | 35 | 1007.3 |
| 20260504234339 | 21 | 167 | 6.4 | 25.7 | 0.00 | 0.13 | 0.00 | 35 | 1007.4 |
| 20260504233429 | 21 | 203 | 6.4 | 25.7 | 0.00 | 0.13 | 0.00 | 35 | 1007.6 |
| 20260504232529 | 22 | 154 | 11.3 | 27.4 | 0.00 | 0.13 | 0.00 | 33 | 1007.5 |
| 20260504231539 | 22 | 188 | 4.8 | 12.9 | 0.00 | 0.13 | 0.00 | 31 | 1007.7 |
| 20260504230549 | 22 | 185 | 3.2 | 11.3 | 0.00 | 0.13 | 0.00 | 32 | 1007.6 |
| 20260504225659 | 22 | 186 | 3.2 | 12.9 | 0.00 | 0.13 | 0.00 | 34 | 1007.4 |
| 20260504224846 | 22 | 177 | 3.2 | 12.9 | 0.00 | 0.13 | 0.00 | 35 | 1007.6 |
| 20260504224019 | 22 | 154 | 4.8 | 14.5 | 0.00 | 0.13 | 0.00 | 34 | 1007.5 |
| 20260504223044 | 21 | 181 | 4.8 | 16.1 | 0.00 | 0.13 | 0.00 | 34 | 1007.6 |
| 20260504222129 | 22 | 156 | 3.2 | 12.9 | 0.00 | 0.13 | 0.00 | 34 | 1007.8 |
| 20260504221229 | 22 | 191 | 3.2 | 14.5 | 0.00 | 0.13 | 0.00 | 34 | 1007.6 |
| 20260504220352 | 22 | 204 | 6.4 | 16.1 | 0.00 | 0.13 | 0.00 | 34 | 1007.9 |
| 20260504215402 | 22 | 151 | 4.8 | 17.7 | 0.00 | 0.13 | 0.00 | 33 | 1007.9 |
| 20260504214559 | 22 | 182 | 4.8 | 17.7 | 0.00 | 0.13 | 0.00 | 33 | 1008.1 |
| 20260504213619 | 22 | 149 | 3.2 | 16.1 | 0.00 | 0.13 | 0.00 | 36 | 1008.3 |
| 20260504212732 | 22 | 235 | 3.2 | 11.3 | 0.00 | 0.13 | 0.00 | 32 | 1008.4 |
| 20260504211744 | 22 | 260 | 3.2 | 9.7 | 0.00 | 0.13 | 0.00 | 31 | 1008.6 |
| 20260504211016 | 22 | 176 | 3.2 | 11.3 | 0.00 | 0.13 | 0.00 | 31 | 1008.4 |
| 20260504210943 | 22 | 176 | 3.2 | 11.3 | 0.00 | 0.13 | 0.00 | 31 | 1008.4 |
| 20260504210019 | 23 | 151 | 4.8 | 12.9 | 0.00 | 0.13 | 0.00 | 32 | 1008.3 |
| 20260504205049 | 23 | 179 | 3.2 | 9.7 | 0.00 | 0.13 | 0.00 | 32 | 1008.5 |
| 20260504204133 | 22 | 141 | 1.6 | 8.0 | 0.00 | 0.13 | 0.00 | 31 | 1008.5 |
| 20260504203319 | 22 | 222 | 1.6 | 14.5 | 0.00 | 0.13 | 0.00 | 30 | 1008.8 |
| 20260504202409 | 22 | 271 | 4.8 | 16.1 | 0.00 | 0.13 | 0.00 | 33 | 1008.8 |
| 20260504201519 | 22 | 329 | 3.2 | 16.1 | 0.00 | 0.13 | 0.00 | 34 | 1008.9 |
| 20260504200559 | 21 | 253 | 4.8 | 12.9 | 0.00 | 0.13 | 0.00 | 35 | 1009.0 |
| 20260504195739 | 21 | 288 | 1.6 | 11.3 | 0.00 | 0.13 | 0.00 | 34 | 1009.4 |
| 20260504194854 | 21 | 240 | 6.4 | 20.9 | 0.00 | 0.13 | 0.00 | 37 | 1009.6 |
| 20260504193959 | 21 | 303 | 8.0 | 20.9 | 0.00 | 0.13 | 0.00 | 36 | 1009.5 |
| 20260504193149 | 21 | 323 | 6.4 | 16.1 | 0.00 | 0.13 | 0.00 | 36 | 1009.6 |
| 20260504192348 | 21 | 278 | 8.0 | 20.9 | 0.00 | 0.13 | 0.00 | 38 | 1009.8 |
| 20260504191526 | 21 | 348 | 1.6 | 8.0 | 0.00 | 0.13 | 0.00 | 40 | 1009.8 |
| 20260504190714 | 20 | 357 | 3.2 | 9.7 | 0.00 | 0.13 | 0.00 | 39 | 1010.1 |
| 20260504185734 | 19 | 342 | 3.2 | 9.7 | 0.00 | 0.13 | 0.00 | 43 | 1010.1 |
| 20260504184844 | 19 | 55 | 3.2 | 12.9 | 0.00 | 0.13 | 0.00 | 41 | 1010.4 |
| 20260504183959 | 19 | 317 | 8.0 | 12.9 | 0.00 | 0.13 | 0.00 | 42 | 1010.6 |
| 20260504183109 | 18 | 45 | 4.8 | 12.9 | 0.00 | 0.13 | 0.00 | 46 | 1011.0 |
| 20260504182229 | 17 | 312 | 8.0 | 12.9 | 0.00 | 0.13 | 0.00 | 49 | 1011.0 |
| 20260504181319 | 17 | 337 | 1.6 | 4.8 | 0.08 | 0.13 | 0.00 | 51 | 1011.1 |
| 20260504180424 | 16 | 334 | 1.6 | 4.8 | 0.10 | 0.13 | 0.00 | 60 | 1011.3 |
| 20260504175552 | 16 | 354 | 1.6 | 4.8 | 0.10 | 0.13 | 0.00 | 64 | 1011.6 |
| 20260504174612 | 15 | 20 | 1.6 | 4.8 | 0.10 | 0.13 | 0.00 | 69 | 1011.5 |
| 20260504173712 | 16 | 2 | 1.6 | 0.0 | 0.10 | 0.13 | 0.00 | 69 | 1011.7 |
| 20260504172859 | 16 | 341 | 1.6 | 16.1 | 0.10 | 0.13 | 0.00 | 66 | 1011.6 |
| 20260504171919 | 17 | 315 | 4.8 | 11.3 | 0.08 | 0.10 | 0.00 | 59 | 1012.1 |
| 20260504171119 | 18 | 14 | 3.2 | 11.3 | 0.03 | 0.05 | 0.00 | 52 | 1011.6 |
| 20260504170159 | 18 | 45 | 4.8 | 16.1 | 0.00 | 0.03 | 0.00 | 44 | 1011.5 |
| 20260504150509 | 16 | 146 | 6.4 | 25.7 | 0.00 | 0.00 | 0.00 | 49 | 1012.9 |
| 20260504140959 | 15 | 162 | 11.3 | 27.4 | 0.00 | 0.00 | 0.00 | 52 | 1012.9 |
| 20260504130349 | 12 | 93 | 8.0 | 20.9 | 0.00 | 0.00 | 0.00 | 58 | 1012.4 |
| 20260504120214 | 12 | 126 | 3.2 | 9.7 | 0.00 | 0.00 | 0.00 | 59 | 1012.4 |
| 20260504081319 | 18 | 113 | 4.8 | 16.1 | 0.00 | 0.00 | 0.00 | 35 | 1011.3 |
| 20260504080444 | 18 | 121 | 6.4 | 16.1 | 0.00 | 0.00 | 0.00 | 35 | 1011.2 |
| 20260504070202 | 18 | 144 | 4.8 | 20.9 | 0.00 | 0.00 | 0.00 | 32 | 1011.0 |
| 20260504060134 | 14 | 117 | 8.0 | 27.4 | 0.00 | 0.00 | 0.00 | 29 | 1010.6 |
| 20260504050708 | 14 | 73 | 0.0 | 0.0 | 0.00 | 0.00 | 0.00 | 34 | 1010.6 |
| 20260504045749 | 14 | 75 | 0.0 | 3.2 | 0.00 | 0.00 | 0.00 | 33 | 1010.5 |
| 20260504044814 | 15 | 96 | 1.6 | 3.2 | 0.00 | 0.00 | 0.00 | 31 | 1010.7 |
| 20260504043829 | 15 | 69 | 1.6 | 1.6 | 0.00 | 0.00 | 0.00 | 31 | 1010.7 |
| 20260504043024 | 15 | 64 | 0.0 | 3.2 | 0.00 | 0.00 | 0.00 | 31 | 1010.8 |
| 20260504042212 | 15 | 100 | 1.6 | 4.8 | 0.00 | 0.00 | 0.00 | 31 | 1010.8 |
| 20260504041304 | 15 | 99 | 6.4 | 9.7 | 0.00 | 0.00 | 0.00 | 31 | 1010.7 |
| 20260504040452 | 15 | 90 | 3.2 | 4.8 | 0.00 | 0.00 | 0.00 | 34 | 1010.9 |
| 20260504035654 | 15 | 49 | 0.0 | 1.6 | 0.00 | 0.00 | 0.00 | 34 | 1010.6 |